Location: Newark
(12.4436°N, 0.6167°W)
Time: 21:23:47
(UTC+00:00)

Explorer 7 - All Passes

Search period start: 13 December 2019 00:00
Search period end: 23 December 2019 00:00
Orbit: 485 x 680 km, 50.3° (Epoch: 13 December)

Date Brightness Start Highest point End Pass type
(mag) Time Alt. Az. Time Alt. Az. Time Alt. Az.
13 Dec - 11:38:00 10° S 11:41:27 23° SE 11:45:02 10° ENE daylight
13 Dec - 13:18:02 10° WSW 13:21:51 27° NW 13:25:48 10° N daylight
13 Dec - 21:55:06 10° N 21:58:31 20° NE 22:01:48 10° E night (unlit)
13 Dec - 23:35:05 10° WNW 23:39:02 30° SW 23:42:46 10° S night (unlit)
14 Dec - 11:42:07 10° SSW 11:46:15 46° SE 11:50:40 10° NE daylight
14 Dec - 13:24:25 10° WNW 13:26:56 15° NW 13:29:31 10° N daylight
14 Dec - 21:59:15 10° NNW 22:03:34 38° NE 22:07:40 10° ESE night (unlit)
14 Dec - 23:41:15 10° W 23:43:49 15° WSW 23:46:18 10° SSW night (unlit)
15 Dec - 11:46:48 10° SW 11:51:07 84° NW 11:55:44 10° NE daylight
15 Dec - 22:03:52 10° NW 22:08:32 78° NE 22:12:54 10° SE night (unlit)
16 Dec - 10:13:44 10° SSE 10:15:51 14° ESE 10:18:02 10° E daylight
16 Dec - 11:51:59 10° WSW 11:56:04 40° NW 12:00:24 10° NNE daylight
16 Dec - 20:30:16 10° NNE 20:32:41 14° NE 20:35:02 10° ENE night (unlit)
16 Dec - 22:08:53 10° NW 22:13:24 51° SW 22:17:39 10° SSE night (unlit)
17 Dec - 10:17:04 10° S 10:20:39 27° SE 10:24:25 10° ENE daylight
17 Dec - 11:57:46 10° W 12:01:06 21° NW 12:04:35 10° N daylight
17 Dec - 20:33:52 10° N 20:37:47 25° NE 20:41:33 10° ESE night (unlit)
17 Dec - 22:14:25 10° WNW 22:18:13 25° SW 22:21:51 10° S night (unlit)
18 Dec - 10:21:21 10° SSW 10:25:28 58° SE 10:29:52 10° NE daylight
18 Dec - 12:04:49 10° WNW 12:06:14 11° NW 12:07:40 10° NNW daylight
18 Dec - 20:38:11 10° NNW 20:42:47 48° NE 20:47:10 10° SE night (unlit)
18 Dec - 22:21:03 10° W 22:23:00 13° WSW 22:24:55 10° SSW night (unlit)
19 Dec - 10:26:12 10° SW 10:30:21 66° NW 10:34:48 10° NNE daylight
19 Dec - 20:42:56 10° NW 20:47:43 84° SW 20:52:14 10° SE night (unlit)
20 Dec - 08:52:29 10° SSE 08:55:04 16° SE 08:57:45 10° E daylight
20 Dec - 10:31:34 10° WSW 10:35:19 31° NW 10:39:19 10° NNE daylight
20 Dec - 19:08:45 10° N 19:11:56 17° NE 19:15:01 10° E visible
20 Dec - 20:48:06 10° NW 20:52:34 41° SW 20:56:50 10° SSE night (unlit)
21 Dec - 08:56:11 10° S 08:59:52 33° SE 09:03:45 10° ENE daylight
21 Dec - 10:37:38 10° W 10:40:23 17° NW 10:43:15 10° N daylight
21 Dec - 19:12:42 10° NNW 19:17:00 31° NE 19:21:07 10° ESE visible
21 Dec - 20:53:50 10° WNW 20:57:22 21° SW 21:00:48 10° S night (unlit)
22 Dec - 09:00:40 10° SSW 09:04:42 74° SE 09:09:01 10° NE daylight
22 Dec - 19:17:11 10° NNW 19:21:58 61° NE 19:26:33 10° SE visible
22 Dec - 21:01:28 10° WSW 21:02:10 10° WSW 21:02:52 10° SW visible
